Flag for Norway Weather past 2 weeks in Grimstad, Norway

Now
52 °F

Cool.


Feels Like: 48 °F
Forecast: 49 / 56 °F
Wind: 12 mph from East

Location: Torungen Fyr

Current Time: Oct 22, 2014 at 11:57:06 AM

Latest Report: Oct 22, 2014 at 11:00 AM


Visibility: N/A

Pressure: 29.77 "Hg

Humidity: 92%

Dew point: 50 °F

Location of GrimstadLocation

Historic Weather in Grimstad — Graph

°F

Grimstad temperature yesterday

Maximum temperature yesterday: 54 °F (at 10:00 PM)
Minimum temperature yesterday: 46 °F (at 7:00 AM)
Average temperature yesterday: 51 °F

Past Weeks' High & Low Weather Summary

 TemperatureHumidityPressure
High59 °F (Oct 20, 3:00 PM)100% (Oct 18, 12:00 AM)30.06 "Hg (Oct 18, 12:00 AM)
Low39 °F (Oct 16, 11:00 PM)62% (Oct 12, 4:00 PM)29.29 "Hg (Oct 7, 11:00 PM)
Average51 °F88%29.70 "Hg
* Reported Oct 7 10:00 AM — Oct 22 10:00 AM, Grimstad, Weather by CustomWeather, © 2014

Note: Actual official high and low records may vary slightly from our data, if they occured in-between our weather recording intervals... More about our weather records

Advertising

Grimstad weather history for previous 24 hours

 ConditionsComfort  
Time TempWeatherWind HumidityBarometerVisibility
10:00 AM
Oct 22
53 °FCool.10 mph91%29.73 "HgN/A
9:00 AM53 °FCool.10 mph90%29.69 "HgN/A
8:00 AM53 °FCool.9 mph92%29.65 "HgN/A
7:00 AM53 °FCool.9 mph92%29.61 "HgN/A
6:00 AM53 °FCool.10 mph92%29.57 "HgN/A
5:00 AM53 °FCool.9 mph93%29.54 "HgN/A
4:00 AM53 °FCool.9 mph92%29.50 "HgN/A
3:00 AM54 °FCool.12 mph92%29.47 "HgN/A
2:00 AM53 °FCool.14 mph93%29.44 "HgN/A
1:00 AM54 °FCool.14 mph94%29.38 "HgN/A
12:00 AM54 °FCool.14 mph94%29.35 "HgN/A
11:00 PM
Oct 21
54 °FCool.14 mph93%29.35 "HgN/A
10:00 PM54 °FCool.13 mph93%29.32 "HgN/A
9:00 PM54 °FCool.12 mph93%29.32 "HgN/A
8:00 PM54 °FCool.12 mph93%29.29 "HgN/A
7:00 PM54 °FCool.13 mph93%29.29 "HgN/A
6:00 PM54 °FCool.13 mph92%29.32 "HgN/A
5:00 PM54 °FCool.12 mph92%29.32 "HgN/A
4:00 PM54 °FCool.12 mph92%29.35 "HgN/A
3:00 PM54 °FCool.12 mph92%29.38 "HgN/A
2:00 PM54 °FCool.13 mph91%29.38 "HgN/A
1:00 PM54 °FCool.12 mph91%29.41 "HgN/A
12:00 PM54 °FCool.10 mph91%29.44 "HgN/A
11:00 AM52 °FCool.8 mph94%29.47 "HgN/A
Weather by CustomWeather, © 2014

See weather overviewHow to use our weather pages